Weather History for Hurlburt Field, FL

Change the Weather History Date:

Monday, May 13, 2013

  Actual Average Record
Temperature  
Mean Temperature 64 °F -  
Max Temperature 79 °F 81 °F 89 °F (2007)
Min Temperature 50 °F 63 °F 50 °F (2013)
Growing Degree Days 14 (Base 50)    
Moisture  
Dew Point 51 °F    
Average Humidity 62    
Maximum Humidity 86    
Minimum Humidity 40    
Precipitation  
Precipitation 0.00 in - - ()
Sea Level Pressure  
Sea Level Pressure 30.19 in    
Wind  
Wind Speed 10 mph (North)    
Max Wind Speed 16 mph    
Max Gust Speed 23 mph    
Visibility 10 miles    
Events      
Averages and records for this station are not official NWS values.
T = Trace of Precipitation, MM = Missing Value Source: NWS Daily Summary

Daily Weather History Graph

Daily Weather History Graph

Search for Another Location

Airport:

Trip Planner

Search our weather history database for the weather conditions in past years. The results will help you decide how hot, cold, wet, or windy it might be!

Date:

Astronomy

May. 13, 2013 Rise Set
Actual Time 5:53 AM CDT 7:32 PM CDT
Civil Twilight 5:27 AM CDT 7:59 PM CDT
Nautical Twilight 4:56 AM CDT 8:30 PM CDT
Astronomical Twilight 4:22 AM CDT 9:03 PM CDT
Moon 8:40 AM CDT (5/13) 10:41 PM CDT (5/13)
Length of Visible Light 14h 31m
Length of Day
13h 39m
Waxing Crescent, 12% of the Moon is Illuminated
May 13
Waxing Crescent
May 17
First Quarter
May 24
Full
May 31
Last Quarter
Jun 8
New

Hourly Weather History & Observations

Time (CDT) Temp. Dew Point Humidity Pressure Visibility Wind Dir Wind Speed Gust Speed Precip Events Conditions
12:58 AM 60.1 °F 54.1 °F 81% 30.11 in 10.0 mi North 10.4 mph - N/A   Clear
1:58 AM 59.4 °F 52.5 °F 78% 30.12 in 10.0 mi North 10.4 mph - N/A   Clear
2:58 AM 57.9 °F 50.2 °F 75% 30.13 in 10.0 mi North 10.4 mph - N/A   Partly Cloudy
3:58 AM 54.9 °F 48.7 °F 80% 30.15 in 10.0 mi North 9.2 mph - N/A   Clear
4:58 AM 53.6 °F 47.8 °F 81% 30.16 in 10.0 mi North 8.1 mph - N/A   Clear
5:58 AM 50.9 °F 46.9 °F 86% 30.18 in 10.0 mi North 9.2 mph - N/A   Clear
6:58 AM 54.5 °F 48.7 °F 81% 30.22 in 10.0 mi North 5.8 mph - N/A   Clear
7:58 AM 61.3 °F 49.5 °F 65% 30.24 in 10.0 mi NNE 10.4 mph - N/A   Clear
8:58 AM 66.4 °F 48.7 °F 53% 30.25 in 10.0 mi NNE 9.2 mph - N/A   Clear
9:58 AM 69.1 °F 48.2 °F 47% 30.26 in 10.0 mi North 15.0 mph - N/A   Clear
10:58 AM 71.4 °F 49.1 °F 45% 30.26 in 10.0 mi NE 9.2 mph 18.4 mph N/A   Clear
11:58 AM 73.0 °F 50.2 °F 44% 30.24 in 10.0 mi Variable 5.8 mph 17.3 mph N/A   Partly Cloudy
12:58 PM 75.7 °F 51.4 °F 43% 30.23 in 10.0 mi North 11.5 mph - N/A   Mostly Cloudy
1:58 PM 75.4 °F 50.7 °F 42% 30.22 in 10.0 mi North 13.8 mph 19.6 mph N/A   Scattered Clouds
3:58 PM 79.0 °F 52.9 °F 40% 30.18 in 10.0 mi North 12.7 mph 19.6 mph N/A   Clear
4:58 PM 78.1 °F 52.3 °F 41% 30.17 in 10.0 mi NNW 16.1 mph 19.6 mph N/A   Clear
5:58 PM 77.2 °F 52.0 °F 41% 30.17 in 10.0 mi NNE 13.8 mph 23.0 mph N/A   Clear
6:58 PM 73.8 °F 51.6 °F 46% 30.17 in 10.0 mi North 8.1 mph - N/A   Clear
7:58 PM 66.2 °F 50.7 °F 57% 30.18 in 10.0 mi North 5.8 mph - N/A   Clear
8:58 PM 65.7 °F 52.3 °F 62% 30.20 in 10.0 mi NNW 3.5 mph - N/A   Clear
9:58 PM 59.2 °F 52.5 °F 79% 30.21 in 10.0 mi North 3.5 mph - N/A   Clear
10:58 PM 57.7 °F 52.7 °F 83% 30.21 in 10.0 mi North 4.6 mph - N/A   Clear
11:58 PM 54.9 °F 50.5 °F 85% 30.21 in 10.0 mi North 4.6 mph - N/A   Clear